| time (UTC) | temp F | wind direction | speed MPH | gust MPH | rain 1hr in | rain 24hr in | rain mn in | humidity % | barometer mb |
| 20260906223009 | 67 | 68 | 0.0 | 0.0 | 0.00 | 0.02 | 0.02 | 58 | 1015.3 |
| 20260906221502 | 67 | 76 | 0.0 | 0.0 | 0.00 | 0.02 | 0.02 | 58 | 1015.3 |
| 20260906220004 | 66 | 198 | 0.0 | 0.0 | 0.00 | 0.02 | 0.02 | 55 | 1015.2 |
| 20260906214506 | 67 | 168 | 0.0 | 1.0 | 0.00 | 0.02 | 0.02 | 54 | 1015.2 |
| 20260906213005 | 67 | 168 | 0.0 | 2.0 | 0.00 | 0.02 | 0.02 | 56 | 1015.1 |
| 20260906211503 | 67 | 300 | 0.0 | 1.0 | 0.00 | 0.02 | 0.02 | 55 | 1015.2 |
| 20260906210004 | 67 | 231 | 0.0 | 0.0 | 0.00 | 0.02 | 0.02 | 55 | 1015.2 |
| 20260906204503 | 68 | 230 | 0.0 | 1.0 | 0.00 | 0.02 | 0.02 | 54 | 1015.2 |
| 20260906203004 | 68 | 132 | 0.0 | 2.0 | 0.00 | 0.02 | 0.02 | 54 | 1015.3 |
| 20260906201504 | 68 | 352 | 0.0 | 2.0 | 0.00 | 0.02 | 0.02 | 51 | 1015.3 |
| 20260906200010 | 69 | 336 | 0.0 | 1.0 | 0.00 | 0.02 | 0.02 | 52 | 1015.3 |
| 20260906194503 | 70 | 344 | 0.0 | 1.0 | 0.00 | 0.02 | 0.02 | 54 | 1015.3 |
| 20260906193004 | 69 | 344 | 0.0 | 2.0 | 0.00 | 0.02 | 0.02 | 53 | 1015.4 |
| 20260906191504 | 68 | 304 | 0.0 | 1.0 | 0.00 | 0.02 | 0.02 | 58 | 1015.4 |
| 20260906190007 | 67 | 229 | 0.0 | 1.0 | 0.00 | 0.02 | 0.02 | 58 | 1015.5 |
| 20260906184504 | 66 | 229 | 0.0 | 1.0 | 0.00 | 0.02 | 0.02 | 62 | 1015.7 |
| 20260906183004 | 64 | 229 | 0.0 | 0.0 | 0.00 | 0.02 | 0.02 | 68 | 1015.9 |
| 20260906181505 | 62 | 229 | 0.0 | 1.0 | 0.00 | 0.02 | 0.02 | 74 | 1016.0 |
| 20260906180007 | 60 | 229 | 0.0 | 0.0 | 0.00 | 0.02 | 0.02 | 81 | 1015.8 |
| 20260906174510 | 57 | 229 | 0.0 | 0.0 | 0.00 | 0.02 | 0.02 | 85 | 1015.9 |
| 20260906173014 | 56 | 153 | 0.0 | 1.0 | 0.00 | 0.02 | 0.02 | 86 | 1015.9 |
| 20260906171509 | 55 | 139 | 0.0 | 0.0 | 0.00 | 0.02 | 0.02 | 87 | 1015.9 |
| 20260906170009 | 55 | 139 | 0.0 | 0.0 | 0.00 | 0.02 | 0.02 | 87 | 1015.9 |
| 20260906164523 | 55 | 213 | 0.0 | 0.0 | 0.01 | 0.02 | 0.02 | 87 | 1015.5 |
| 20260906163021 | 54 | 213 | 0.0 | 0.0 | 0.02 | 0.02 | 0.02 | 86 | 1015.7 |
| 20260906161512 | 55 | 213 | 0.0 | 0.0 | 0.02 | 0.02 | 0.02 | 85 | 1015.6 |
| 20260906160014 | 55 | 213 | 0.0 | 1.0 | 0.02 | 0.02 | 0.02 | 85 | 1016.2 |
| 20260906154518 | 55 | 175 | 0.0 | 4.0 | 0.01 | 0.01 | 0.01 | 82 | 1016.7 |
| 20260906153015 | 55 | 161 | 1.0 | 7.0 | 0.00 | 0.00 | 0.00 | 79 | 1016.7 |
| 20260906151516 | 55 | 163 | 0.0 | 5.0 | 0.00 | 0.00 | 0.00 | 79 | 1016.8 |
| 20260906150038 | 55 | 121 | 0.0 | 2.0 | 0.00 | 0.00 | 0.00 | 79 | 1016.2 |
| 20260906144523 | 55 | 174 | 0.0 | 0.0 | 0.00 | 0.00 | 0.00 | 79 | 1015.5 |
| 20260906143003 | 55 | 174 | 0.0 | 0.0 | 0.00 | 0.00 | 0.00 | 78 | 1015.3 |
| 20260906141507 | 54 | 174 | 0.0 | 0.0 | 0.00 | 0.00 | 0.00 | 76 | 1015.5 |
| 20260906140012 | 54 | 221 | 0.0 | 0.0 | 0.00 | 0.00 | 0.00 | 76 | 1015.5 |
| 20260906134516 | 54 | 221 | 0.0 | 0.0 | 0.00 | 0.00 | 0.00 | 76 | 1015.2 |
| 20260906133014 | 54 | 221 | 0.0 | 0.0 | 0.00 | 0.00 | 0.00 | 76 | 1015.1 |
| 20260906131516 | 54 | 221 | 0.0 | 0.0 | 0.00 | 0.00 | 0.00 | 76 | 1015.1 |
| 20260906130006 | 54 | 221 | 0.0 | 0.0 | 0.00 | 0.00 | 0.00 | 75 | 1015.2 |
| 20260906124514 | 54 | 221 | 0.0 | 0.0 | 0.00 | 0.00 | 0.00 | 75 | 1015.3 |
| 20260906123020 | 54 | 221 | 0.0 | 0.0 | 0.00 | 0.00 | 0.00 | 75 | 1015.4 |
| 20260906121523 | 54 | 221 | 0.0 | 0.0 | 0.00 | 0.00 | 0.00 | 76 | 1015.5 |
| 20260906120007 | 54 | 221 | 0.0 | 0.0 | 0.00 | 0.00 | 0.00 | 77 | 1015.5 |
| 20260906114522 | 54 | 191 | 0.0 | 0.0 | 0.00 | 0.00 | 0.00 | 73 | 1015.5 |
| 20260906113011 | 54 | 191 | 0.0 | 0.0 | 0.00 | 0.00 | 0.00 | 72 | 1015.5 |
| 20260906111522 | 54 | 191 | 0.0 | 0.0 | 0.00 | 0.00 | 0.00 | 72 | 1015.7 |
| 20260906110038 | 54 | 191 | 0.0 | 0.0 | 0.00 | 0.00 | 0.00 | 71 | 1015.5 |
| 20260906104517 | 54 | 191 | 0.0 | 0.0 | 0.00 | 0.00 | 0.00 | 71 | 1015.7 |
| 20260906103018 | 54 | 191 | 0.0 | 0.0 | 0.00 | 0.00 | 0.00 | 71 | 1015.7 |
| 20260906101518 | 54 | 191 | 0.0 | 0.0 | 0.00 | 0.00 | 0.00 | 71 | 1015.7 |
| 20260906100015 | 55 | 183 | 0.0 | 0.0 | 0.00 | 0.00 | 0.00 | 70 | 1015.5 |
| 20260906094557 | 55 | 183 | 0.0 | 0.0 | 0.00 | 0.00 | 0.00 | 70 | 1015.5 |
| 20260906093018 | 55 | 183 | 0.0 | 0.0 | 0.00 | 0.00 | 0.00 | 70 | 1015.4 |
| 20260906091524 | 55 | 183 | 0.0 | 0.0 | 0.00 | 0.00 | 0.00 | 70 | 1015.4 |
| 20260906090029 | 56 | 183 | 0.0 | 0.0 | 0.00 | 0.00 | 0.00 | 70 | 1015.7 |
| 20260906084533 | 56 | 183 | 0.0 | 0.0 | 0.00 | 0.00 | 0.00 | 70 | 1015.8 |
| 20260906083021 | 57 | 183 | 0.0 | 0.0 | 0.00 | 0.00 | 0.00 | 70 | 1015.8 |
| 20260906081536 | 57 | 183 | 0.0 | 0.0 | 0.00 | 0.00 | 0.00 | 70 | 1016.0 |
| 20260906080012 | 57 | 183 | 0.0 | 0.0 | 0.00 | 0.00 | 0.00 | 69 | 1016.0 |
| 20260906074506 | 57 | 183 | 0.0 | 0.0 | 0.00 | 0.00 | 0.00 | 69 | 1016.0 |
| 20260906073007 | 58 | 183 | 0.0 | 2.0 | 0.00 | 0.00 | 0.00 | 68 | 1016.1 |
| 20260906071513 | 58 | 183 | 0.0 | 0.0 | 0.00 | 0.00 | 0.00 | 67 | 1016.4 |
| 20260906070022 | 59 | 183 | 0.0 | 0.0 | 0.00 | 0.00 | 0.00 | 65 | 1016.2 |
| 20260906064515 | 59 | 183 | 0.0 | 0.0 | 0.00 | 0.00 | 0.00 | 65 | 1016.3 |
| 20260906063008 | 60 | 183 | 0.0 | 0.0 | 0.00 | 0.00 | 0.00 | 65 | 1016.3 |
| 20260906061516 | 60 | 183 | 0.0 | 0.0 | 0.00 | 0.00 | 0.00 | 62 | 1016.4 |
| 20260906060008 | 61 | 183 | 0.0 | 0.0 | 0.00 | 0.00 | 0.00 | 61 | 1016.4 |
| 20260906054523 | 61 | 183 | 0.0 | 0.0 | 0.00 | 0.00 | 0.00 | 61 | 1016.5 |
| 20260906053028 | 62 | 183 | 0.0 | 0.0 | 0.00 | 0.00 | 0.00 | 60 | 1016.4 |
| 20260906051509 | 62 | 183 | 0.0 | 0.0 | 0.00 | 0.00 | 0.00 | 59 | 1016.4 |
| 20260906050020 | 63 | 183 | 0.0 | 0.0 | 0.00 | 0.00 | 0.00 | 59 | 1016.4 |
| 20260906044516 | 63 | 183 | 0.0 | 1.0 | 0.00 | 0.00 | 0.00 | 58 | 1016.5 |
| 20260906043012 | 64 | 183 | 0.0 | 0.0 | 0.00 | 0.00 | 0.00 | 58 | 1016.5 |
| 20260906041537 | 64 | 183 | 0.0 | 0.0 | 0.00 | 0.00 | 0.00 | 57 | 1016.5 |
| 20260906040015 | 64 | 183 | 0.0 | 0.0 | 0.00 | 0.00 | 0.00 | 56 | 1016.6 |
| 20260906034521 | 65 | 183 | 0.0 | 0.0 | 0.00 | 0.00 | 0.00 | 55 | 1016.5 |
| 20260906033027 | 65 | 183 | 0.0 | 2.0 | 0.00 | 0.00 | 0.00 | 53 | 1016.4 |
| 20260906031537 | 66 | 100 | 0.0 | 0.0 | 0.00 | 0.00 | 0.00 | 47 | 1016.3 |
| 20260906030017 | 67 | 100 | 0.0 | 0.0 | 0.00 | 0.00 | 0.00 | 48 | 1016.2 |
| 20260906024516 | 68 | 100 | 0.0 | 0.0 | 0.00 | 0.00 | 0.00 | 47 | 1016.2 |
| 20260906023024 | 68 | 100 | 0.0 | 0.0 | 0.00 | 0.00 | 0.00 | 48 | 1016.0 |
| 20260906021532 | 69 | 100 | 0.0 | 0.0 | 0.00 | 0.00 | 0.00 | 47 | 1015.9 |
| 20260906020040 | 70 | 100 | 0.0 | 0.0 | 0.00 | 0.00 | 0.00 | 46 | 1016.0 |
| 20260906014504 | 71 | 100 | 0.0 | 0.0 | 0.00 | 0.00 | 0.00 | 47 | 1015.9 |
| 20260906013003 | 71 | 100 | 0.0 | 0.0 | 0.00 | 0.00 | 0.00 | 46 | 1015.9 |
| 20260906011510 | 72 | 100 | 0.0 | 0.0 | 0.00 | 0.00 | 0.00 | 44 | 1016.0 |
| 20260906010008 | 72 | 100 | 0.0 | 1.0 | 0.00 | 0.00 | 0.00 | 42 | 1015.9 |
| 20260906004512 | 72 | 94 | 0.0 | 1.0 | 0.00 | 0.00 | 0.00 | 42 | 1016.1 |
| 20260906003003 | 73 | 158 | 0.0 | 0.0 | 0.00 | 0.00 | 0.00 | 43 | 1016.1 |
| 20260906001503 | 73 | 158 | 0.0 | 3.0 | 0.00 | 0.00 | 0.00 | 41 | 1016.2 |
| 20260906000004 | 74 | 139 | 0.0 | 2.0 | 0.00 | 0.00 | 0.00 | 43 | 1016.2 |
| 20260905234508 | 74 | 129 | 0.0 | 2.0 | 0.00 | 0.00 | 0.00 | 43 | 1016.2 |
| 20260905233018 | 74 | 135 | 0.0 | 1.0 | 0.00 | 0.00 | 0.00 | 44 | 1016.3 |
| 20260905231506 | 74 | 186 | 0.0 | 3.0 | 0.00 | 0.00 | 0.00 | 43 | 1016.2 |
| 20260905230003 | 75 | 80 | 0.0 | 0.0 | 0.00 | 0.00 | 0.00 | 40 | 1016.3 |
| 20260905224507 | 75 | 327 | 0.0 | 0.0 | 0.00 | 0.00 | 0.00 | 43 | 1016.4 |